QPF
0.01 0.01 0.01 0.01 0.01 0.01 0.01 0.01 0.01 0.02 0.06 0.05 0.01 0.01 0.01 0.01 0.02 0.02 0.03 0.02 0.01 0.01 0.00 0.00 0.00 0.00 0.00 0.00 0.00 0.00 0.00 0.00 0.00 0.00 0.00 0.00 0.00 0.00 0.00 0.00 0.00 0.00 0.00 0.00
0.02 0.01 0.00 0.00 0.00 0.01 0.02 0.02 0.03 0.03 0.03 0.03 0.02 0.01 0.01 0.01 0.01 0.03 0.03 0.04 0.02 0.01 0.01 0.00 0.00 0.00 0.00 0.01 0.00 0.00 0.00 0.00 0.00 0.00 0.00 0.00 0.00 0.00 0.00 0.00 0.00 0.00 0.00 0.00
0.01 0.01 0.00 0.00 0.00 0.01 0.01 0.01 0.02 0.04 0.05 0.03 0.02 0.02 0.02 0.02 0.01 0.02 0.03 0.03 0.04 0.02 0.01 0.00 0.00 0.01 0.01 0.01 0.01 0.00 0.00 0.00 0.00 0.00 0.00 0.00 0.00 0.00 0.00 0.00 0.00 0.01 0.01 0.01
0.02 0.01 0.00 0.00 0.01 0.01 0.01 0.01 0.01 0.04 0.05 0.04 0.02 0.02 0.02 0.02 0.02 0.02 0.03 0.02 0.02 0.02 0.01 0.01 0.00 0.01 0.01 0.01 0.01 0.01 0.00 0.00 0.00 0.00 0.00 0.00 0.00 0.00 0.00 0.00 0.00 0.01 0.01 0.01
0.02 0.01 0.00 0.01 0.01 0.00 0.01 0.01 0.01 0.02 0.05 0.04 0.03 0.01 0.01 0.02 0.02 0.03 0.04 0.02 0.02 0.02 0.01 0.01 0.01 0.01 0.02 0.02 0.01 0.00 0.00 0.00 0.00 0.00 0.00 0.00 0.00 0.00 0.00 0.00 0.01 0.00 0.01 0.01
0.02 0.01 0.01 0.01 0.01 0.01 0.01 0.01 0.01 0.01 0.02 0.03 0.01 0.01 0.01 0.01 0.01 0.03 0.04 0.02 0.02 0.02 0.01 0.01 0.02 0.02 0.02 0.02 0.01 0.00 0.00 0.00 0.00 0.00 0.00 0.00 0.00 0.00 0.01 0.01 0.01 0.00 0.01 0.01
0.02 0.01 0.01 0.01 0.00 0.00 0.00 0.01 0.02 0.02 0.02 0.01 0.00 0.00 0.00 0.00 0.01 0.02 0.02 0.01 0.01 0.02 0.01 0.01 0.02 0.02 0.02 0.01 0.00 0.00 0.00 0.00 0.00 0.00 0.00 0.00 0.00 0.00 0.01 0.01 0.00 0.00 0.01 0.00
0.01 0.02 0.01 0.01 0.00 0.00 0.00 0.00 0.02 0.03 0.02 0.01 0.01 0.01 0.00 0.01 0.00 0.01 0.01 0.01 0.02 0.02 0.02 0.01 0.01 0.01 0.01 0.01 0.00 0.00 0.00 0.00 0.00 0.00 0.00 0.00 0.00 0.00 0.01 0.00 0.00 0.00 0.00 0.00
0.01 0.01 0.01 0.01 0.00 0.00 0.00 0.01 0.01 0.02 0.02 0.01 0.01 0.01 0.01 0.01 0.00 0.01 0.02 0.02 0.03 0.03 0.03 0.02 0.01 0.01 0.00 0.00 0.00 0.00 0.00 0.00 0.00 0.00 0.00 0.00 0.00 0.00 0.01 0.00 0.00 0.00 0.00 0.00
0.01 0.00 0.01 0.01 0.01 0.01 0.00 0.00 0.01 0.02 0.02 0.03 0.02 0.02 0.02 0.02 0.01 0.01 0.02 0.03 0.02 0.03 0.03 0.02 0.02 0.01 0.00 0.00 0.00 0.00 0.00 0.00 0.00 0.00 0.00 0.00 0.00 0.00 0.00 0.00 0.01 0.00 0.00 0.01
0.00 0.00 0.01 0.01 0.01 0.01 0.01 0.01 0.01 0.01 0.01 0.02 0.03 0.01 0.01 0.02 0.02 0.01 0.02 0.02 0.02 0.02 0.02 0.02 0.02 0.01 0.01 0.01 0.00 0.01 0.00 0.00 0.00 0.00 0.00 0.00 0.00 0.00 0.00 0.00 0.00 0.00 0.00 0.01
0.01 0.01 0.01 0.01 0.01 0.01 0.01 0.01 0.01 0.01 0.01 0.01 0.02 0.02 0.01 0.01 0.01 0.01 0.01 0.01 0.01 0.01 0.02 0.02 0.02 0.02 0.01 0.01 0.01 0.01 0.00 0.00 0.00 0.00 0.00 0.00 0.00 0.00 0.00 0.00 0.00 0.00 0.01 0.01
0.01 0.01 0.01 0.01 0.01 0.01 0.01 0.01 0.01 0.01 0.01 0.01 0.01 0.01 0.01 0.01 0.01 0.01 0.01 0.01 0.01 0.01 0.01 0.01 0.02 0.02 0.01 0.01 0.01 0.01 0.01 0.00 0.00 0.00 0.00 0.00 0.00 0.00 0.00 0.00 0.00 0.00 0.00 0.01
0.01 0.01 0.00 0.01 0.01 0.01 0.01 0.01 0.01 0.01 0.01 0.01 0.01 0.01 0.01 0.02 0.01 0.01 0.01 0.01 0.01 0.01 0.01 0.01 0.01 0.02 0.02 0.01 0.01 0.01 0.01 0.01 0.01 0.00 0.00 0.00 0.00 0.00 0.00 0.00 0.00 0.00 0.00 0.00
0.01 0.01 0.00 0.00 0.00 0.00 0.01 0.00 0.00 0.01 0.01 0.01 0.01 0.01 0.01 0.02 0.01 0.01 0.01 0.01 0.02 0.02 0.01 0.01 0.01 0.02 0.02 0.02 0.01 0.01 0.01 0.01 0.01 0.00 0.00 0.00 0.00 0.00 0.00 0.00 0.00 0.00 0.00 0.00
0.01 0.00 0.01 0.00 0.00 0.00 0.00 0.00 0.00 0.00 0.00 0.01 0.01 0.01 0.02 0.02 0.01 0.01 0.02 0.01 0.02 0.02 0.01 0.01 0.01 0.01 0.01 0.01 0.02 0.02 0.01 0.01 0.01 0.01 0.00 0.00 0.00 0.00 0.00 0.00 0.00 0.00 0.00 0.00
0.01 0.01 0.01 0.00 0.00 0.00 0.00 0.00 0.01 0.01 0.01 0.01 0.01 0.01 0.01 0.01 0.01 0.01 0.02 0.02 0.02 0.01 0.01 0.01 0.01 0.00 0.00 0.01 0.01 0.02 0.02 0.02 0.01 0.01 0.00 0.00 0.00 0.00 0.00 0.00 0.00 0.00 0.00 0.00
0.01 0.00 0.01 0.01 0.01 0.01 0.00 0.01 0.01 0.01 0.01 0.01 0.00 0.00 0.00 0.01 0.00 0.01 0.02 0.02 0.02 0.01 0.01 0.01 0.01 0.00 0.01 0.01 0.01 0.01 0.01 0.02 0.02 0.02 0.01 0.00 0.00 0.00 0.00 0.00 0.00 0.00 0.00 0.00
0.01 0.01 0.01 0.01 0.01 0.01 0.00 0.01 0.01 0.01 0.01 0.01 0.01 0.01 0.01 0.01 0.01 0.01 0.02 0.02 0.01 0.02 0.02 0.02 0.02 0.01 0.01 0.01 0.01 0.01 0.01 0.02 0.02 0.02 0.02 0.02 0.01 0.01 0.01 0.01 0.00 0.00 0.01 0.00
0.02 0.02 0.02 0.01 0.02 0.01 0.01 0.01 0.01 0.01 0.01 0.01 0.01 0.00 0.00 0.00 0.00 0.00 0.01 0.01 0.01 0.01 0.02 0.03 0.03 0.02 0.01 0.01 0.01 0.01 0.01 0.02 0.01 0.01 0.02 0.03 0.03 0.02 0.02 0.02 0.02 0.02 0.02 0.01
0.03 0.03 0.02 0.02 0.02 0.01 0.01 0.01 0.01 0.02 0.02 0.01 0.01 0.01 0.00 0.00 0.00 0.00 0.00 0.01 0.01 0.01 0.02 0.02 0.02 0.02 0.02 0.01 0.02 0.02 0.02 0.02 0.01 0.02 0.02 0.02 0.02 0.02 0.02 0.01 0.02 0.02 0.01 0.01
0.04 0.04 0.03 0.02 0.02 0.02 0.02 0.02 0.02 0.01 0.01 0.01 0.01 0.01 0.00 0.00 0.00 0.00 0.00 0.01 0.01 0.02 0.01 0.02 0.02 0.02 0.02 0.02 0.01 0.01 0.02 0.02 0.01 0.02 0.03 0.02 0.02 0.02 0.01 0.01 0.01 0.01 0.01 0.00
0.02 0.03 0.03 0.02 0.02 0.02 0.02 0.03 0.02 0.01 0.01 0.01 0.01 0.00 0.01 0.00 0.00 0.00 0.00 0.00 0.01 0.01 0.01 0.01 0.01 0.01 0.01 0.01 0.01 0.01 0.02 0.02 0.01 0.01 0.02 0.02 0.02 0.02 0.02 0.01 0.00 0.00 0.00 0.00
0.03 0.03 0.02 0.02 0.01 0.01 0.02 0.03 0.02 0.02 0.01 0.00 0.00 0.00 0.00 0.01 0.00 0.00 0.00 0.00 0.00 0.01 0.01 0.01 0.00 0.01 0.01 0.01 0.01 0.02 0.02 0.01 0.01 0.01 0.01 0.02 0.02 0.03 0.02 0.01 0.00 0.00 0.00 0.00
0.04 0.03 0.03 0.03 0.03 0.02 0.02 0.03 0.02 0.01 0.01 0.01 0.00 0.00 0.00 0.00 0.00 0.00 0.00 0.00 0.00 0.00 0.01 0.01 0.00 0.01 0.01 0.01 0.02 0.03 0.02 0.01 0.01 0.01 0.01 0.02 0.02 0.02 0.02 0.01 0.01 0.01 0.01 0.01
0.06 0.05 0.05 0.04 0.04 0.04 0.03 0.02 0.01 0.01 0.01 0.01 0.01 0.01 0.00 0.00 0.00 0.00 0.00 0.01 0.01 0.01 0.01 0.01 0.01 0.01 0.01 0.02 0.02 0.02 0.02 0.02 0.01 0.01 0.01 0.01 0.02 0.02 0.02 0.01 0.02 0.02 0.01 0.01
MSLP
1015.15 1015.75 1016.22 1016.53 1016.73 1016.85 1016.93 1017.01 1017.12 1017.26 1017.41 1017.56 1017.67 1017.74 1017.77 1017.74 1017.69 1017.63 1017.57 1017.52 1017.48 1017.45 1017.40 1017.33 1017.24 1017.14 1017.04 1016.96 1016.94 1016.98 1017.08 1017.25 1017.45 1017.64 1017.80 1017.89 1017.88 1017.79 1017.61 1017.38 1017.14 1016.93 1016.78 1016.72
1015.59 1016.04 1016.35 1016.55 1016.67 1016.77 1016.88 1017.04 1017.24 1017.46 1017.67 1017.84 1017.93 1017.93 1017.85 1017.72 1017.57 1017.45 1017.37 1017.35 1017.39 1017.46 1017.53 1017.57 1017.56 1017.51 1017.42 1017.33 1017.27 1017.26 1017.34 1017.49 1017.69 1017.91 1018.10 1018.22 1018.25 1018.16 1017.98 1017.73 1017.46 1017.21 1017.04 1016.97
1015.86 1016.15 1016.30 1016.38 1016.45 1016.55 1016.73 1016.99 1017.31 1017.65 1017.93 1018.12 1018.18 1018.10 1017.90 1017.65 1017.39 1017.19 1017.08 1017.09 1017.20 1017.38 1017.57 1017.72 1017.81 1017.82 1017.75 1017.66 1017.56 1017.52 1017.56 1017.69 1017.89 1018.12 1018.34 1018.50 1018.56 1018.50 1018.33 1018.08 1017.79 1017.54 1017.35 1017.26
1016.00 1016.10 1016.11 1016.11 1016.15 1016.30 1016.58 1016.98 1017.44 1017.89 1018.25 1018.46 1018.47 1018.29 1017.96 1017.56 1017.17 1016.87 1016.72 1016.73 1016.90 1017.17 1017.48 1017.75 1017.94 1018.02 1018.00 1017.91 1017.80 1017.73 1017.73 1017.84 1018.03 1018.27 1018.51 1018.71 1018.80 1018.77 1018.63 1018.39 1018.12 1017.86 1017.67 1017.59
1016.01 1015.95 1015.85 1015.80 1015.86 1016.10 1016.51 1017.07 1017.68 1018.25 1018.68 1018.88 1018.82 1018.52 1018.04 1017.46 1016.92 1016.50 1016.28 1016.28 1016.49 1016.84 1017.26 1017.65 1017.95 1018.12 1018.15 1018.08 1017.97 1017.88 1017.86 1017.93 1018.11 1018.35 1018.61 1018.83 1018.96 1018.97 1018.87 1018.66 1018.42 1018.18 1017.99 1017.90
1015.93 1015.74 1015.57 1015.51 1015.64 1016.00 1016.57 1017.29 1018.05 1018.73 1019.20 1019.37 1019.22 1018.78 1018.12 1017.36 1016.64 1016.09 1015.79 1015.76 1015.99 1016.42 1016.93 1017.44 1017.85 1018.11 1018.21 1018.18 1018.09 1017.99 1017.94 1018.00 1018.15 1018.39 1018.65 1018.89 1019.06 1019.11 1019.05 1018.89 1018.68 1018.46 1018.30 1018.21
1015.77 1015.50 1015.31 1015.29 1015.51 1016.01 1016.75 1017.63 1018.51 1019.26 1019.74 1019.86 1019.61 1019.01 1018.16 1017.22 1016.34 1015.66 1015.27 1015.21 1015.46 1015.94 1016.54 1017.15 1017.67 1018.02 1018.20 1018.23 1018.16 1018.07 1018.02 1018.05 1018.19 1018.41 1018.68 1018.93 1019.12 1019.21 1019.19 1019.08 1018.91 1018.72 1018.57 1018.49
1015.55 1015.24 1015.06 1015.12 1015.46 1016.10 1016.98 1017.98 1018.96 1019.75 1020.21 1020.26 1019.89 1019.14 1018.13 1017.03 1016.01 1015.22 1014.76 1014.67 1014.93 1015.46 1016.14 1016.84 1017.45 1017.90 1018.16 1018.25 1018.22 1018.15 1018.10 1018.12 1018.24 1018.45 1018.71 1018.97 1019.17 1019.30 1019.32 1019.25 1019.11 1018.96 1018.84 1018.77
1015.29 1014.97 1014.84 1014.98 1015.44 1016.20 1017.18 1018.27 1019.28 1020.07 1020.48 1020.45 1019.97 1019.10 1017.98 1016.77 1015.66 1014.80 1014.30 1014.20 1014.47 1015.04 1015.77 1016.54 1017.23 1017.76 1018.10 1018.26 1018.28 1018.23 1018.20 1018.22 1018.33 1018.52 1018.77 1019.02 1019.24 1019.39 1019.44 1019.41 1019.31 1019.19 1019.09 1019.03
1015.00 1014.71 1014.64 1014.86 1015.40 1016.23 1017.27 1018.38 1019.38 1020.12 1020.47 1020.36 1019.80 1018.86 1017.68 1016.43 1015.29 1014.42 1013.92 1013.83 1014.12 1014.71 1015.48 1016.30 1017.04 1017.64 1018.04 1018.25 1018.33 1018.32 1018.31 1018.34 1018.45 1018.63 1018.87 1019.12 1019.34 1019.50 1019.58 1019.58 1019.52 1019.43 1019.35 1019.30
1014.74 1014.49 1014.46 1014.74 1015.32 1016.16 1017.18 1018.25 1019.18 1019.84 1020.11 1019.94 1019.34 1018.39 1017.23 1016.01 1014.92 1014.10 1013.64 1013.58 1013.89 1014.49 1015.27 1016.10 1016.87 1017.50 1017.95 1018.22 1018.35 1018.39 1018.42 1018.47 1018.59 1018.77 1019.00 1019.24 1019.47 1019.64 1019.74 1019.76 1019.73 1019.67 1019.62 1019.59
1014.56 1014.35 1014.36 1014.64 1015.20 1015.99 1016.93 1017.88 1018.70 1019.25 1019.44 1019.23 1018.64 1017.74 1016.66 1015.55 1014.57 1013.84 1013.45 1013.43 1013.75 1014.34 1015.10 1015.91 1016.68 1017.32 1017.79 1018.11 1018.30 1018.41 1018.48 1018.58 1018.71 1018.91 1019.14 1019.38 1019.61 1019.79 1019.91 1019.96 1019.96 1019.94 1019.91 1019.91
1014.52 1014.34 1014.34 1014.59 1015.07 1015.75 1016.54 1017.33 1017.99 1018.42 1018.53 1018.31 1017.76 1016.96 1016.01 1015.06 1014.23 1013.63 1013.33 1013.35 1013.67 1014.22 1014.93 1015.69 1016.41 1017.03 1017.53 1017.89 1018.14 1018.32 1018.46 1018.61 1018.80 1019.01 1019.26 1019.51 1019.75 1019.94 1020.08 1020.17 1020.21 1020.22 1020.23 1020.26
1014.66 1014.48 1014.46 1014.63 1014.98 1015.49 1016.08 1016.67 1017.15 1017.44 1017.48 1017.25 1016.77 1016.10 1015.33 1014.56 1013.90 1013.44 1013.22 1013.27 1013.56 1014.05 1014.67 1015.34 1016.00 1016.60 1017.10 1017.51 1017.83 1018.09 1018.33 1018.56 1018.80 1019.06 1019.34 1019.61 1019.86 1020.08 1020.25 1020.38 1020.46 1020.52 1020.57 1020.64
1014.98 1014.78 1014.70 1014.75 1014.95 1015.25 1015.61 1015.98 1016.26 1016.41 1016.38 1016.15 1015.75 1015.22 1014.63 1014.04 1013.55 1013.20 1013.05 1013.10 1013.34 1013.75 1014.26 1014.83 1015.42 1015.98 1016.49 1016.95 1017.35 1017.72 1018.06 1018.39 1018.71 1019.04 1019.36 1019.66 1019.94 1020.19 1020.40 1020.57 1020.71 1020.83 1020.94 1021.04
1015.40 1015.19 1015.02 1014.95 1014.95 1015.04 1015.17 1015.30 1015.39 1015.39 1015.29 1015.07 1014.75 1014.35 1013.91 1013.48 1013.13 1012.88 1012.76 1012.79 1012.96 1013.26 1013.66 1014.13 1014.64 1015.17 1015.70 1016.22 1016.72 1017.20 1017.66 1018.10 1018.53 1018.93 1019.30 1019.65 1019.97 1020.25 1020.51 1020.74 1020.95 1021.13 1021.30 1021.46
1015.85 1015.60 1015.35 1015.14 1014.96 1014.83 1014.73 1014.65 1014.55 1014.43 1014.26 1014.04 1013.77 1013.47 1013.15 1012.86 1012.60 1012.41 1012.31 1012.30 1012.39 1012.58 1012.87 1013.24 1013.69 1014.20 1014.76 1015.35 1015.96 1016.56 1017.15 1017.72 1018.24 1018.73 1019.17 1019.57 1019.93 1020.26 1020.58 1020.87 1021.14 1021.40 1021.64 1021.85
1016.19 1015.90 1015.58 1015.24 1014.90 1014.58 1014.28 1014.00 1013.74 1013.50 1013.26 1013.02 1012.79 1012.57 1012.34 1012.14 1011.95 1011.79 1011.68 1011.62 1011.64 1011.74 1011.93 1012.23 1012.64 1013.14 1013.74 1014.41 1015.12 1015.85 1016.56 1017.24 1017.87 1018.44 1018.94 1019.40 1019.81 1020.20 1020.57 1020.93 1021.28 1021.61 1021.92 1022.20
1016.31 1016.00 1015.60 1015.16 1014.68 1014.21 1013.74 1013.31 1012.92 1012.57 1012.27 1012.02 1011.80 1011.62 1011.46 1011.31 1011.16 1011.03 1010.90 1010.81 1010.77 1010.80 1010.93 1011.18 1011.57 1012.08 1012.72 1013.46 1014.26 1015.10 1015.92 1016.70 1017.42 1018.06 1018.63 1019.14 1019.61 1020.04 1020.47 1020.90 1021.32 1021.73 1022.12 1022.46
1016.16 1015.82 1015.37 1014.85 1014.27 1013.68 1013.09 1012.54 1012.04 1011.62 1011.27 1010.99 1010.79 1010.63 1010.50 1010.39 1010.28 1010.16 1010.04 1009.93 1009.86 1009.86 1009.96 1010.19 1010.57 1011.11 1011.78 1012.57 1013.44 1014.35 1015.25 1016.11 1016.89 1017.60 1018.22 1018.78 1019.30 1019.79 1020.28 1020.78 1021.27 1021.76 1022.21 1022.62
1015.73 1015.36 1014.88 1014.30 1013.66 1012.99 1012.32 1011.68 1011.12 1010.63 1010.24 1009.95 1009.74 1009.60 1009.50 1009.43 1009.35 1009.26 1009.16 1009.07 1009.01 1009.01 1009.11 1009.34 1009.73 1010.28 1010.97 1011.79 1012.69 1013.64 1014.58 1015.48 1016.30 1017.05 1017.72 1018.33 1018.90 1019.45 1020.00 1020.56 1021.12 1021.67 1022.20 1022.67
1015.06 1014.68 1014.17 1013.56 1012.87 1012.16 1011.44 1010.76 1010.15 1009.64 1009.22 1008.92 1008.71 1008.59 1008.51 1008.47 1008.44 1008.40 1008.35 1008.30 1008.27 1008.31 1008.43 1008.68 1009.08 1009.63 1010.32 1011.13 1012.03 1012.97 1013.91 1014.82 1015.66 1016.44 1017.15 1017.80 1018.42 1019.03 1019.64 1020.26 1020.89 1021.50 1022.08 1022.61
1014.26 1013.86 1013.33 1012.70 1012.00 1011.27 1010.53 1009.84 1009.21 1008.68 1008.26 1007.95 1007.75 1007.63 1007.59 1007.59 1007.61 1007.63 1007.64 1007.66 1007.70 1007.79 1007.96 1008.23 1008.63 1009.16 1009.82 1010.60 1011.45 1012.35 1013.26 1014.15 1014.99 1015.79 1016.53 1017.23 1017.90 1018.57 1019.24 1019.92 1020.60 1021.27 1021.90 1022.47
1013.43 1013.00 1012.46 1011.82 1011.12 1010.40 1009.67 1008.98 1008.36 1007.83 1007.41 1007.10 1006.90 1006.81 1006.79 1006.83 1006.91 1007.00 1007.09 1007.19 1007.31 1007.46 1007.67 1007.96 1008.36 1008.86 1009.47 1010.18 1010.96 1011.79 1012.65 1013.50 1014.33 1015.14 1015.91 1016.66 1017.39 1018.12 1018.86 1019.59 1020.32 1021.02 1021.68 1022.29
1012.66 1012.20 1011.64 1011.01 1010.33 1009.62 1008.92 1008.26 1007.66 1007.15 1006.73 1006.43 1006.24 1006.16 1006.16 1006.24 1006.37 1006.52 1006.69 1006.87 1007.06 1007.27 1007.52 1007.83 1008.21 1008.67 1009.22 1009.85 1010.55 1011.30 1012.10 1012.91 1013.72 1014.54 1015.34 1016.14 1016.94 1017.74 1018.53 1019.30 1020.07 1020.79 1021.47 1022.08
1011.99 1011.49 1010.93 1010.31 1009.66 1009.00 1008.35 1007.73 1007.16 1006.67 1006.28 1005.98 1005.80 1005.72 1005.74 1005.83 1005.99 1006.20 1006.42 1006.67 1006.92 1007.19 1007.47 1007.79 1008.15 1008.56 1009.05 1009.59 1010.21 1010.89 1011.62 1012.40 1013.21 1014.04 1014.88 1015.74 1016.59 1017.44 1018.28 1019.10 1019.88 1020.61 1021.28 1021.89
Thickness
5747 5730 5721 5726 5732 5731 5728 5723 5718 5724 5736 5729 5721 5719 5722 5727 5725 5721 5720 5720 5721 5724 5728 5730 5732 5732 5731 5730 5729 5728 5728 5728 5728 5726 5725 5723 5722 5723 5724 5724 5724 5723 5722 5721
5726 5721 5734 5741 5740 5735 5729 5719 5717 5723 5733 5727 5717 5716 5723 5726 5725 5725 5723 5722 5722 5721 5723 5726 5728 5729 5729 5728 5728 5727 5727 5727 5727 5727 5725 5724 5722 5722 5722 5722 5722 5721 5721 5720
5718 5729 5744 5739 5733 5728 5724 5718 5717 5716 5723 5726 5716 5707 5715 5722 5727 5728 5728 5727 5725 5724 5723 5724 5725 5726 5727 5727 5727 5727 5726 5726 5727 5726 5725 5723 5721 5720 5719 5719 5719 5720 5720 5719
5722 5736 5739 5732 5728 5727 5715 5729 5726 5719 5706 5698 5707 5685 5705 5715 5719 5723 5724 5724 5725 5727 5726 5725 5726 5725 5726 5727 5728 5727 5726 5726 5726 5725 5723 5720 5717 5715 5716 5717 5717 5718 5719 5718
5720 5732 5730 5725 5729 5731 5724 5733 5727 5719 5706 5696 5700 5689 5698 5712 5711 5719 5724 5726 5727 5728 5727 5727 5727 5727 5727 5728 5727 5726 5726 5725 5725 5725 5723 5720 5717 5716 5716 5717 5717 5717 5717 5717
5725 5737 5735 5732 5737 5737 5733 5723 5714 5704 5694 5681 5695 5688 5693 5707 5719 5725 5727 5729 5730 5729 5728 5728 5728 5727 5726 5726 5726 5725 5724 5723 5724 5723 5722 5720 5718 5716 5715 5715 5714 5715 5715 5715
5712 5723 5734 5738 5725 5727 5721 5695 5675 5673 5669 5675 5698 5693 5699 5724 5734 5734 5732 5731 5732 5730 5728 5726 5725 5724 5724 5724 5724 5724 5723 5722 5722 5722 5721 5720 5719 5718 5716 5715 5714 5713 5713 5713
5691 5694 5719 5729 5722 5712 5710 5697 5672 5663 5663 5675 5694 5690 5710 5736 5740 5741 5738 5736 5733 5730 5729 5727 5726 5725 5724 5724 5724 5723 5722 5721 5721 5720 5720 5720 5720 5718 5717 5716 5715 5714 5713 5713
5687 5691 5720 5729 5731 5721 5705 5695 5696 5680 5679 5673 5681 5697 5717 5733 5733 5733 5733 5731 5730 5730 5728 5727 5727 5726 5725 5724 5724 5723 5722 5721 5720 5720 5720 5719 5719 5719 5718 5717 5716 5715 5715 5715
5700 5691 5708 5721 5724 5721 5715 5704 5685 5676 5665 5661 5676 5687 5695 5714 5721 5726 5727 5728 5729 5729 5728 5727 5726 5726 5725 5725 5724 5723 5722 5721 5720 5720 5719 5719 5718 5719 5718 5717 5716 5715 5715 5714
5703 5688 5693 5704 5701 5700 5703 5699 5689 5675 5672 5661 5663 5681 5718 5719 5724 5725 5728 5729 5729 5728 5728 5727 5725 5726 5725 5724 5723 5721 5721 5720 5719 5719 5718 5718 5717 5718 5717 5716 5716 5715 5714 5713
5698 5682 5675 5690 5708 5714 5707 5700 5688 5671 5671 5670 5666 5682 5729 5727 5729 5729 5729 5731 5731 5730 5730 5728 5726 5724 5723 5721 5721 5720 5719 5719 5719 5718 5717 5717 5717 5716 5716 5715 5715 5715 5714 5712
5696 5678 5664 5670 5683 5699 5700 5701 5696 5685 5674 5667 5665 5685 5724 5725 5726 5729 5730 5731 5731 5729 5728 5726 5724 5722 5722 5721 5720 5719 5719 5719 5718 5717 5716 5715 5715 5714 5714 5714 5714 5714 5712 5711
5698 5677 5669 5664 5673 5686 5689 5697 5698 5686 5670 5671 5678 5692 5711 5718 5721 5725 5728 5730 5730 5729 5727 5725 5723 5722 5722 5722 5721 5719 5719 5719 5718 5716 5714 5713 5713 5713 5713 5713 5713 5712 5711 5709
5691 5675 5679 5684 5693 5694 5694 5695 5697 5691 5687 5679 5688 5695 5708 5717 5722 5727 5729 5729 5728 5726 5725 5725 5723 5722 5722 5721 5720 5720 5719 5719 5718 5715 5713 5713 5713 5712 5712 5711 5710 5710 5709 5708
5682 5675 5678 5680 5691 5692 5691 5696 5697 5697 5696 5694 5696 5700 5718 5723 5724 5725 5728 5728 5727 5726 5726 5727 5725 5724 5723 5723 5722 5721 5719 5718 5717 5715 5713 5712 5711 5710 5709 5709 5708 5707 5705 5704
5672 5669 5663 5661 5678 5682 5677 5693 5697 5698 5702 5700 5695 5705 5718 5718 5722 5724 5727 5729 5729 5729 5729 5728 5728 5727 5727 5727 5725 5722 5721 5719 5716 5714 5712 5711 5710 5708 5707 5706 5704 5703 5702 5701
5667 5661 5653 5654 5663 5654 5681 5705 5707 5703 5705 5709 5711 5715 5719 5722 5726 5729 5731 5731 5730 5732 5732 5731 5731 5730 5729 5729 5727 5724 5721 5718 5715 5713 5711 5710 5708 5706 5704 5703 5701 5700 5699 5697
5672 5660 5648 5646 5648 5660 5685 5702 5704 5698 5697 5711 5712 5715 5720 5723 5721 5722 5731 5734 5734 5735 5735 5735 5734 5733 5731 5729 5727 5723 5718 5716 5714 5712 5711 5710 5708 5705 5702 5700 5699 5698 5696 5694
5667 5662 5650 5644 5644 5646 5677 5703 5713 5704 5689 5711 5714 5714 5716 5715 5701 5710 5728 5732 5733 5734 5735 5734 5733 5731 5728 5728 5726 5721 5717 5714 5713 5713 5712 5710 5708 5705 5702 5700 5698 5696 5694 5692
5648 5646 5644 5642 5645 5659 5688 5703 5705 5679 5685 5710 5714 5716 5715 5711 5713 5720 5727 5729 5731 5732 5732 5732 5730 5727 5727 5727 5724 5719 5716 5715 5717 5715 5711 5709 5706 5704 5701 5698 5696 5694 5691 5688
5645 5641 5641 5641 5641 5656 5694 5695 5689 5691 5706 5711 5713 5715 5715 5716 5718 5721 5723 5725 5726 5726 5727 5728 5726 5724 5724 5724 5721 5718 5716 5719 5716 5713 5709 5706 5704 5702 5699 5695 5692 5690 5688 5684
5648 5653 5652 5654 5661 5682 5693 5696 5702 5704 5704 5707 5710 5714 5715 5713 5714 5716 5718 5720 5722 5723 5723 5723 5721 5719 5720 5720 5720 5716 5716 5716 5713 5710 5707 5704 5702 5700 5697 5694 5690 5687 5684 5682
5648 5657 5655 5657 5669 5682 5690 5696 5699 5702 5703 5707 5710 5711 5712 5709 5710 5712 5713 5714 5715 5716 5717 5717 5716 5714 5714 5715 5717 5716 5716 5714 5711 5708 5705 5702 5699 5696 5694 5692 5689 5685 5682 5680
5644 5648 5649 5652 5665 5675 5683 5689 5693 5697 5701 5704 5706 5708 5708 5707 5706 5707 5707 5709 5709 5710 5711 5712 5710 5709 5709 5711 5712 5713 5713 5712 5708 5705 5702 5699 5697 5694 5690 5688 5686 5685 5684 5683
5640 5645 5645 5649 5663 5665 5673 5685 5691 5692 5694 5697 5699 5700 5703 5704 5702 5703 5702 5703 5703 5704 5705 5704 5704 5704 5705 5706 5706 5707 5708 5707 5704 5700 5697 5695 5692 5690 5687 5683 5680 5679 5679 5679